Pompano Beach, FL

6:31 PM EDT on June 23, 2018 (GMT -0400)
Pompano Beach

Weather History for KPMP - June, 2018

Change the Weather History Date:

Wednesday, June 13, 2018

  Actual Average Record
Temperature  
Mean Temperature 82 °F -  
Max Temperature 87 °F 89 °F 96 °F (1975)
Min Temperature 79 °F 73 °F 62 °F (1978)
Cooling Degree Days 18    
Growing Degree Days 32 (Base 50)    
Moisture  
Dew Point 74 °F    
Average Humidity 77    
Maximum Humidity 90    
Minimum Humidity 67    
Precipitation  
Precipitation 0.00 in - - ()
Sea Level Pressure  
Sea Level Pressure 30.08 in    
Wind  
Wind Speed 5 mph (SE)    
Max Wind Speed 14 mph    
Max Gust Speed -    
Visibility 10 miles    
Events Thunderstorm    
Averages and records for this station are not official NWS values.
T = Trace of Precipitation, MM = Missing Value Source: NWS Daily Summary

Daily Weather History Graph

Daily Weather History Graph

Search for Another Location

Airport or City:

Astronomy

Jun. 13, 2018 Rise Set
Actual Time 6:27 AM EDT 8:13 PM EDT
Civil Twilight 6:01 AM EDT 8:39 PM EDT
Nautical Twilight 5:29 AM EDT 9:11 PM EDT
Astronomical Twilight 4:56 AM EDT 9:44 PM EDT
Moon 6:20 AM EDT (6/13) 8:12 PM EDT (6/13)
Length of Visible Light 14h 38m
Length of Day
13h 46m
Waning Crescent, 0% of the Moon is Illuminated
Jun 13
Waning Crescent
Jun 13
New
Jun 20
First Quarter
Jun 28
Full
Jul 6
Last Quarter

Hourly Weather History & Observations

Time (EDT) Temp. Heat Index Dew Point Humidity Pressure Visibility Wind Dir Wind Speed Gust Speed Precip Events Conditions
12:21 AM 81.0 °F 86.7 °F 75.0 °F 82% 30.07 in 10.0 mi SE 5.8 mph - N/A   Mostly Cloudy
12:53 AM 82.0 °F 89.4 °F 75.9 °F 82% 30.07 in 10.0 mi SE 6.9 mph - N/A   Mostly Cloudy
1:25 AM 81.0 °F 87.3 °F 75.9 °F 85% 30.05 in 10.0 mi ESE 4.6 mph - N/A   Scattered Clouds
1:53 AM 81.0 °F 86.7 °F 75.0 °F 82% 30.05 in 10.0 mi SE 5.8 mph - N/A   Clear
2:53 AM 81.0 °F 86.7 °F 75.0 °F 82% 30.04 in 10.0 mi Calm Calm - N/A   Partly Cloudy
3:41 AM 79.0 °F - 75.9 °F 90% 30.02 in 10.0 mi Calm Calm - N/A   Mostly Cloudy
3:53 AM 79.0 °F - 75.0 °F 88% 30.03 in 10.0 mi Calm Calm - N/A   Mostly Cloudy
4:04 AM 80.1 °F 85.1 °F 75.0 °F 85% 30.02 in 10.0 mi Calm Calm - N/A   Scattered Clouds
4:53 AM 80.1 °F 84.5 °F 73.9 °F 81% 30.04 in 10.0 mi ESE 4.6 mph - N/A   Clear
5:53 AM 81.0 °F 85.8 °F 73.0 °F 77% 30.06 in 10.0 mi ESE 3.5 mph - N/A   Clear
6:53 AM 81.0 °F 86.2 °F 73.9 °F 79% 30.07 in 10.0 mi SE 3.5 mph - N/A   Scattered Clouds
7:49 AM 80.6 °F 86.2 °F 75.2 °F 84% 30.08 in 10.0 mi SE 5.8 mph - N/A Thunderstorm Scattered Clouds
7:53 AM 81.0 °F 86.7 °F 75.0 °F 82% 30.08 in 10.0 mi ESE 5.8 mph - N/A Thunderstorm Scattered Clouds
8:14 AM 81.0 °F 86.7 °F 75.0 °F 82% 30.08 in 10.0 mi SE 9.2 mph - N/A   Mostly Cloudy
8:53 AM 81.0 °F 86.2 °F 73.9 °F 79% 30.11 in 10.0 mi SSE 3.5 mph - N/A   Mostly Cloudy
9:53 AM 82.9 °F 88.8 °F 73.0 °F 72% 30.12 in 10.0 mi Calm Calm - N/A   Clear
10:53 AM 84.0 °F 91.9 °F 75.0 °F 74% 30.13 in 10.0 mi SSE 3.5 mph - N/A   Scattered Clouds
11:53 AM 84.9 °F 93.3 °F 75.0 °F 72% 30.12 in 10.0 mi Variable 3.5 mph - N/A   Scattered Clouds
12:53 PM 86.0 °F 93.8 °F 73.9 °F 67% 30.10 in 10.0 mi Variable 3.5 mph - N/A   Partly Cloudy
1:53 PM 84.9 °F 93.3 °F 75.0 °F 72% 30.11 in 10.0 mi East 8.1 mph - N/A   Clear
2:50 PM 86.0 °F 95.1 °F 75.2 °F 70% 30.09 in 10.0 mi ESE 8.1 mph - N/A Thunderstorm Partly Cloudy
2:53 PM 86.0 °F 96.0 °F 75.9 °F 72% 30.09 in 10.0 mi East 10.4 mph - N/A Thunderstorm Partly Cloudy
3:01 PM 86.0 °F 95.1 °F 75.0 °F 70% 30.08 in 10.0 mi ESE 10.4 mph - N/A Thunderstorm Thunderstorm
3:17 PM 84.9 °F 94.1 °F 75.9 °F 74% 30.08 in 10.0 mi East 10.4 mph - N/A Thunderstorm Clear
3:53 PM 84.9 °F 93.3 °F 75.0 °F 72% 30.09 in 10.0 mi ESE 8.1 mph - N/A Thunderstorm Partly Cloudy
4:11 PM 84.0 °F 92.6 °F 75.9 °F 76% 30.08 in 10.0 mi SE 8.1 mph - N/A   Partly Cloudy
4:53 PM 82.9 °F 90.8 °F 75.9 °F 79% 30.06 in 9.0 mi SSE 10.4 mph - N/A   Clear
5:53 PM 84.0 °F 91.2 °F 73.9 °F 72% 30.06 in 10.0 mi SSE 5.8 mph - N/A   Clear
6:53 PM 82.9 °F 89.4 °F 73.9 °F 74% 30.06 in 10.0 mi SE 13.8 mph - N/A   Clear
7:53 PM 82.0 °F 87.9 °F 73.9 °F 76% 30.08 in 10.0 mi SE 9.2 mph - N/A   Clear
8:53 PM 82.0 °F 87.4 °F 73.0 °F 74% 30.09 in 10.0 mi SSE 9.2 mph - N/A   Clear
9:53 PM 82.0 °F 86.7 °F 72.0 °F 71% 30.09 in 10.0 mi SE 9.2 mph - N/A   Clear
10:53 PM 82.0 °F 85.9 °F 70.0 °F 67% 30.10 in 10.0 mi SE 6.9 mph - N/A   Clear
11:53 PM 82.0 °F 86.7 °F 72.0 °F 71% 30.10 in 10.0 mi SE 6.9 mph - N/A   Clear